sat.trackr.live / text

‹ back to catalog

STARLINK-35451

NORAD 66469 · 2025-262P

PAYLOAD ACTIVE UNKNOWN

§ Identity

Operator
Country
US
Launch date
2025-11-15
Launch site
AFETR
Launch vehicle
Mass (kg)
RCS (m²)

Purposes: comms

External: N2YO · Heavens-Above · Gunter

§ Orbital elements

Epoch: 2026-05-25T05:07:01.655040Z

Period
94.27 min
Inclination
42.9991°
Eccentricity
0.0000812
Mean motion
15.27592693 rev/d
Perigee alt
482.5 km
Apogee alt
483.6 km
Semi-major
6,861.1 km
B*
3.8817e-4
RAAN
223.6638°
Arg perigee
268.3781°
Mean anomaly
91.6978°
Rev number
3,061

§ Raw data

STARLINK-354511 66469U 25262P   26145.21321360  .00010439  00000+0  38817-3 0  99902 66469  42.9991 223.6638 0000812 268.3781  91.6978 15.27592693 30612

JSON: /api/v1/satellites/66469 · /tle

For live sub-satellite position, see the globe view (requires WebGL).

§ Visibility from observer

Set your observer location to see the next 7 days of passes ≥ 10°. The values pass through the URL so the page stays shareable.

No JS? Fill the form by hand. The geolocation button needs JavaScript.